DECAYED

STARLINK-31288, 59260 (Decayed)

Orbit data source: Space-Track

STARLINK-31288, 59260 was a payload satellite owned by SpaceX/Seattle (US) in LEO that was launched on Tue, 19 Mar 2024 UTC via an FALCON 9 launch vehicle from the Air Force Western Test Range (AFWTR). Payload-class satellites include a variety of spacecraft equipped with specific instruments for various scientific and technological missions. These include communications satellites like Starlink; space stations such as the ISS; scientific satellites like the Hubble; Earth observation satellites from companies like Planet Labs, Umbra, and HawkEye 360; GPS; miniature CubeSats for education and research; and military/defense satellites.

Not visible in the next 10 days
Identifier
59260, 2024-050G
Orbit
Decayed
Country
Flag of USUS
Related business
Manufacturer
SpaceX/Seattle
Mission
Decayed Commercial Communications
Bus & Motor
STARLINK V2M, Unknown motor
Mass
730 kg wet, ~700 kg dry
Launch date (UTC)
2024-03-19 (2 years ago)
Launch vehicle
FALCON 9
Launch site
Air Force Western Test Range (AFWTR)
Object type
Payload
Rocket body
Debris
Shape & HBR
Box + 2 Pan, 17.7 m
Radar Cross Section
33.884 m², Large (>1 m²)

Expand to show TLE details & history
Last TLE update: 9 months ago

TLE from 9 months ago
0 STARLINK-31288
1 59260U 24050G   25276.74144513  .02437935  84353-2  20649-2 0  9995
2 59260  53.1178 162.8845 0011269 218.0591 141.9651 16.14865751 86890
Epoch: 2025-10-03T17:47Z
TLE epoch observation values (Epoch: 2025-10-03T17:47:40.859Z)
Latitude
0.00001°
Longitude
-116.71913°
Altitude
240.328 km
Speed
7.76 km/s
True Right ascension
10h 51m 32s
True Declination
0° 00' 00"
Sunlit
Object was in daylight at epoch
Visualization orbit readout
Latitude
Unknown
Longitude
Unknown
Altitude
Unknown
Speed
Unknown
Apparent Right ascension
Unknown
Apparent Declination
Unknown
Sunlit
N/A
Visualization observer readout
Local Sidereal Time
21:29:55
Azimuth
Unknown
Elevation
Unknown
Doppler factor
Unknown
Orbital elements
Apogee altitude
241.252 km
Perigee altitude
226.35 km
Semi-major axis
6,611.938 km
Eccentricity
0.00113
Inclination
53.1178°
RAAN
162.8845°
Arg. of periapsis
218.0591°
True anomaly
142.04458°
Mean anomaly
141.9651°
Eccentric anomaly
142.00485°
Mean motion
4.03692 °/min
Orbital period
89.18 mins
BSTAR
0.0020649
Loading maneuver chart data...
Computing Atmospheric mass density...
Loading historical data...
Loading historical data...
Loading historical data...
Loading historical data...
Loading historical data...
Loading historical data...
Loading historical data...

Documentation

Showing up to 5 results
|